[[{"header":{"parameterUnit":"m.s-1","parameterCategory":1,"la1":30.2991,"la2":30.254,"lo1":-89.0895,"lo2":-89.0444,"dy":0.0017,"dx":0.0017,"nx":28,"ny":28,"refTime":"2023-10-18T21:00:00:Z","depth":0,"parameterNumber":2,"parameterNumberName":"U-component_of_WINDS"},"data":[0,0,0,0,0,0,0,0,0,0,0,0,0,0,0,0,0,0,0,0,0,0,0,0,0,0,0,0,0,0,0,0,0,0,0,0,0,0,0,0,0,0,0,0,0,0,0,0,0,0,0,0,0,0,0,0,0,0,-0.8553,-0.8553,0,-0.8578,-0.8579,-0.8579,-0.8579,-0.8579,-0.8579,-0.8578,-0.8605,-0.8606,-0.8607,0,0,0,0,0,0,0,0,0,0,0,0,0,-0.8507,-0.8508,-0.8553,-0.8553,-0.8554,-0.8578,-0.8579,-0.8579,-0.8579,-0.8579,-0.8578,-0.8578,-0.8604,-0.8606,-0.8607,0,0,0,0,0,0,0,0,0,0,0,0,0,-0.8529,-0.8508,-0.8553,-0.8557,-0.8557,-0.8578,-0.8579,-0.8579,-0.8579,-0.8579,-0.8578,-0.8578,-0.8604,-0.8606,-0.8607,-0.8626,0,0,-0.8612,-0.8612,0,0,0,0,0,0,0,0,-0.8528,-0.8531,-0.8556,-0.8557,-0.8557,-0.8575,-0.8572,-0.8595,-0.8579,-0.8571,-0.8578,-0.8578,-0.8595,-0.8598,-0.8603,-0.8627,-0.8628,-0.8612,-0.8613,-0.8613,-0.8614,0,0,0,0,0,0,0,-0.8527,-0.853,-0.8563,-0.8556,-0.8557,-0.8558,-0.8561,-0.8576,-0.8586,-0.8572,-0.8572,-0.8575,-0.8596,-0.8602,-0.8604,-0.8629,-0.8612,-0.8613,-0.8614,-0.8615,-0.8671,-0.8671,0,0,0,0,0,0,-0.8524,-0.8529,-0.8562,-0.8564,-0.8541,-0.8559,-0.8562,-0.857,-0.8585,-0.8587,-0.8575,-0.8575,-0.86,-0.8602,-0.8605,-0.8628,-0.8613,-0.8615,-0.8616,-0.867,-0.8671,-0.8671,0,0,0,0,0,0,-0.8523,-0.8527,-0.8561,-0.8546,-0.8551,-0.856,-0.8569,-0.8571,-0.8577,-0.8588,-0.859,-0.858,-0.8599,-0.8603,-0.8621,-0.8629,-0.8615,-0.8617,-0.8669,-0.867,-0.8671,-0.8675,0,0,0,0,0,0,-0.8522,-0.8527,-0.8533,-0.8546,-0.8551,-0.8576,-0.857,-0.8571,-0.8579,-0.8579,-0.8593,-0.8595,-0.8599,-0.8619,-0.8622,-0.8631,-0.8618,-0.8669,-0.867,-0.8671,-0.8674,-0.8676,-0.8678,0,0,0,0,0,-0.852,-0.8533,-0.8534,-0.8538,-0.856,-0.8577,-0.858,-0.8584,-0.858,-0.8587,-0.8595,-0.8594,-0.8628,-0.8621,-0.8625,-0.8634,-0.8668,-0.8669,-0.8671,-0.8674,-0.8676,-0.8678,0,0,0,0,0,0,-0.8521,-0.8535,-0.8535,-0.8553,-0.8564,-0.8577,-0.8585,-0.8586,-0.8598,-0.8597,-0.8603,-0.8607,-0.8625,-0.8631,-0.8623,-0.8654,-0.8648,-0.865,-0.8648,-0.8651,-0.8652,-0.865,-0.8619,0,0,0,0,0,-0.8523,-0.8535,-0.8547,-0.8562,-0.8567,-0.8576,-0.8583,-0.8586,-0.8597,-0.8601,-0.861,-0.8621,-0.8635,-0.8643,-0.8656,-0.8676,-0.8679,-0.8685,-0.8686,-0.8688,-0.8689,-0.8701,-0.8703,-0.8676,-0.8676,-0.8676,0,0,-0.8528,-0.8537,-0.8544,-0.8562,-0.8571,-0.8583,-0.8579,-0.8593,-0.8602,-0.8604,-0.8621,-0.8628,-0.8641,-0.866,-0.8669,-0.8667,-0.8698,-0.8689,-0.869,-0.8691,-0.8702,-0.8705,-0.8707,-0.8677,-0.8676,-0.8676,0,0,-0.8543,-0.8551,-0.8565,-0.8573,-0.8586,-0.8592,-0.8595,-0.8608,-0.8613,-0.8631,-0.8632,-0.8645,-0.8667,-0.8677,-0.8684,-0.8705,-0.8705,-0.8709,-0.8717,-0.8729,-0.8731,-0.8733,-0.874,-0.8742,-0.8711,-0.8711,-0.8711,0,-0.8547,-0.8566,-0.8571,-0.8585,-0.8593,-0.8595,-0.8609,-0.8618,-0.8634,-0.864,-0.8637,-0.8666,-0.8675,-0.8697,-0.8702,-0.8708,-0.8713,-0.8707,-0.873,-0.8732,-0.8734,-0.8741,-0.8744,-0.8711,-0.8711,-0.8711,-0.8711,0,-0.8571,-0.8584,-0.8593,-0.8609,-0.8618,-0.8632,-0.864,-0.865,-0.8652,-0.8659,-0.8678,-0.8689,-0.8704,-0.871,-0.8713,-0.8732,-0.873,-0.8729,-0.8722,-0.8737,-0.8743,-0.8746,-0.8712,-0.8712,-0.8712,-0.8711,0,0,-0.8585,-0.8605,-0.8608,-0.8616,-0.8631,-0.8642,-0.8656,-0.8671,-0.8679,-0.8691,-0.8704,-0.8724,-0.8722,-0.8731,-0.8736,-0.8746,-0.8761,-0.8743,-0.8743,-0.8745,-0.8784,-0.8785,-0.8788,-0.8762,-0.8763,-0.8763,-0.8783,0,-0.8602,-0.8626,-0.8633,-0.8654,-0.8667,-0.867,-0.8683,-0.8694,-0.8701,-0.8713,-0.8722,-0.8735,-0.8733,-0.8738,-0.8749,-0.8757,-0.8769,-0.8756,-0.8774,-0.8775,-0.877,-0.8791,-0.8792,-0.881,-0.8786,-0.8786,-0.8787,0,-0.8623,-0.8636,-0.8658,-0.8673,-0.8678,-0.869,-0.8704,-0.8716,-0.873,-0.8734,-0.8745,-0.8748,-0.8765,-0.8759,-0.8781,-0.8772,-0.8781,-0.8786,-0.8787,-0.8788,-0.8781,-0.8792,-0.8816,-0.8818,-0.8791,-0.879,-0.879,0,-0.8631,-0.8654,-0.867,-0.8677,-0.8694,-0.8702,-0.871,-0.8723,-0.8732,-0.8745,-0.8751,-0.8767,-0.8775,-0.8787,-0.8795,-0.879,-0.8818,-0.8812,-0.8822,-0.8822,-0.8826,-0.8826,-0.885,-0.8833,-0.8833,-0.8833,-0.8833,0,-0.8648,-0.8662,-0.8674,-0.8684,-0.87,-0.8708,-0.8724,-0.8732,-0.8744,-0.8756,-0.8761,-0.8772,-0.8783,-0.8796,-0.8803,-0.8821,-0.8825,-0.8829,-0.883,-0.8828,-0.8827,-0.8832,-0.8831,-0.8834,-0.8834,-0.8833,-0.8833,0,-0.8659,-0.8668,-0.8686,-0.8702,-0.8706,-0.8717,-0.873,-0.8741,-0.8749,-0.8765,-0.8769,-0.8781,-0.8797,-0.8807,-0.8827,-0.8832,-0.8852,-0.8853,-0.8847,-0.8847,-0.8856,-0.8855,-0.8884,-0.8889,-0.8869,-0.8869,-0.887,0,-0.8669,-0.8679,-0.8696,-0.8705,-0.8712,-0.8726,-0.8735,-0.8744,-0.8754,-0.8771,-0.8779,-0.8796,-0.8809,-0.8835,-0.8846,-0.8862,-0.8864,-0.8873,-0.8866,-0.8864,-0.8863,-0.8862,-0.8863,-0.8874,-0.8874,-0.8874,-0.8874,0,-0.8685,-0.8689,-0.8702,-0.8717,-0.8728,-0.874,-0.8753,-0.876,-0.8771,-0.8782,-0.8798,-0.8809,-0.883,-0.8846,-0.8864,-0.8872,-0.8875,-0.8877,-0.888,-0.8877,-0.8872,-0.8875,-0.8849,-0.8875,-0.8875,-0.8875,-0.8875,-0.8875,-0.8695,-0.8705,-0.8719,-0.8733,-0.8744,-0.8755,-0.8766,-0.8776,-0.8789,-0.8807,-0.8812,-0.8829,-0.8844,-0.8867,-0.8877,-0.8891,-0.8889,-0.8894,-0.8895,-0.8895,-0.8895,-0.8871,-0.8894,-0.8894,-0.8894,-0.8894,-0.8894,0,-0.8712,-0.8721,-0.8734,-0.8751,-0.8763,-0.8765,-0.8779,-0.8789,-0.8804,-0.8817,-0.8831,-0.885,-0.8867,-0.888,-0.8897,-0.8906,-0.8908,-0.891,-0.8909,-0.8911,-0.8896,-0.8891,-0.8908,-0.8908,-0.8908,-0.8908,-0.8908,-0.8908,-0.8721,-0.8738,-0.8744,-0.8767,-0.8776,-0.8793,-0.8801,-0.8812,-0.8822,-0.8844,-0.8857,-0.8866,-0.8879,-0.8898,-0.8913,-0.8917,-0.8922,-0.8924,-0.8928,-0.8914,-0.8912,-0.891,-0.8906,-0.8926,-0.8926,-0.8942,-0.8942,-0.8942]},{"header":{"parameterUnit":"m.s-1","parameterCategory":1,"la1":30.2991,"la2":30.254,"lo1":-89.0895,"lo2":-89.0444,"dy":0.0017,"dx":0.0017,"nx":28,"ny":28,"refTime":"2023-10-18T21:00:00:Z","depth":0,"parameterNumber":3,"parameterNumberName":"V-component_of_WINDS"},"data":[0,0,0,0,0,0,0,0,0,0,0,0,0,0,0,0,0,0,0,0,0,0,0,0,0,0,0,0,0,0,0,0,0,0,0,0,0,0,0,0,0,0,0,0,0,0,0,0,0,0,0,0,0,0,0,0,0,0,2.5598,2.5598,0,2.5578,2.5578,2.5578,2.5551,2.555,2.555,2.555,2.5529,2.5529,2.5528,0,0,0,0,0,0,0,0,0,0,0,0,0,2.5612,2.5612,2.5598,2.5598,2.5598,2.5578,2.5578,2.5578,2.5551,2.555,2.555,2.5549,2.5529,2.5529,2.5528,0,0,0,0,0,0,0,0,0,0,0,0,0,2.5601,2.5612,2.5598,2.5582,2.558,2.5578,2.5578,2.5578,2.5551,2.555,2.555,2.5549,2.5529,2.5529,2.5528,2.5541,0,0,2.5528,2.5528,0,0,0,0,0,0,0,0,2.5601,2.56,2.5584,2.5583,2.5581,2.5566,2.5575,2.5565,2.5551,2.5562,2.555,2.5549,2.5542,2.554,2.5538,2.554,2.5539,2.5528,2.5528,2.5528,2.5528,0,0,0,0,0,0,0,2.5602,2.5601,2.559,2.5584,2.5582,2.5575,2.5573,2.5573,2.5556,2.5561,2.5559,2.5557,2.5541,2.5539,2.5538,2.5539,2.5528,2.5528,2.5528,2.5527,2.5549,2.555,0,0,0,0,0,0,2.5605,2.5602,2.5591,2.559,2.559,2.5576,2.5573,2.5572,2.5556,2.5553,2.5558,2.5556,2.5539,2.5538,2.5537,2.5549,2.5528,2.5527,2.5527,2.5548,2.5549,2.555,0,0,0,0,0,0,2.5606,2.5605,2.5592,2.5595,2.5593,2.5576,2.5575,2.5572,2.5569,2.5553,2.555,2.5559,2.5539,2.5537,2.554,2.5548,2.5527,2.5527,2.5547,2.5548,2.5549,2.5575,0,0,0,0,0,0,2.5606,2.5605,2.5609,2.5595,2.5593,2.5595,2.5576,2.5572,2.5569,2.5567,2.5553,2.555,2.5538,2.554,2.554,2.5548,2.5527,2.5547,2.5548,2.5549,2.5573,2.5577,2.558,0,0,0,0,0,2.5607,2.5617,2.561,2.5609,2.5598,2.5596,2.5594,2.558,2.557,2.5574,2.5564,2.5551,2.5548,2.5541,2.554,2.5548,2.5546,2.5547,2.5549,2.5572,2.5576,2.558,0,0,0,0,0,0,2.5633,2.5615,2.5607,2.5613,2.5606,2.5591,2.5596,2.5585,2.558,2.5578,2.556,2.5558,2.5562,2.5556,2.5548,2.5559,2.5545,2.5546,2.5563,2.5567,2.557,2.5571,2.5527,0,0,0,0,0,2.5639,2.5639,2.5624,2.5631,2.5628,2.5613,2.5611,2.5601,2.5593,2.559,2.558,2.5572,2.5569,2.5568,2.5565,2.5573,2.5569,2.5578,2.5581,2.5584,2.5585,2.5588,2.5591,2.5555,2.5555,2.5555,0,0,2.5652,2.5643,2.5644,2.5636,2.5629,2.5629,2.561,2.5611,2.5611,2.559,2.5591,2.5584,2.5575,2.558,2.5582,2.5575,2.5594,2.5586,2.5588,2.5588,2.559,2.5593,2.5596,2.5556,2.5556,2.5556,0,0,2.5676,2.5669,2.5674,2.5668,2.5659,2.5648,2.565,2.5637,2.5631,2.5633,2.5617,2.5616,2.5612,2.5606,2.5602,2.5624,2.5612,2.5624,2.564,2.5643,2.5646,2.5649,2.5655,2.5658,2.5625,2.5625,2.5625,0,2.5693,2.5693,2.5678,2.568,2.5676,2.5658,2.5663,2.5657,2.5647,2.5645,2.5637,2.5632,2.5624,2.5627,2.5633,2.5631,2.5631,2.5624,2.5647,2.5649,2.5651,2.5657,2.566,2.5627,2.5627,2.5626,2.5626,0,2.5714,2.5714,2.5719,2.5709,2.5707,2.571,2.5696,2.5695,2.5685,2.5676,2.5678,2.5669,2.5663,2.5663,2.5654,2.5665,2.5661,2.565,2.5636,2.5656,2.5662,2.5664,2.5629,2.5628,2.5628,2.5627,0,0,2.5752,2.5735,2.5737,2.5732,2.5721,2.572,2.5723,2.5717,2.5716,2.5711,2.5711,2.5709,2.5699,2.5695,2.5685,2.5688,2.5704,2.5677,2.5676,2.5681,2.5715,2.5722,2.5725,2.5697,2.5697,2.5698,2.5716,0,2.5772,2.5775,2.5762,2.5768,2.5767,2.575,2.5752,2.5746,2.5737,2.5735,2.5726,2.5724,2.5712,2.5709,2.5712,2.5702,2.5711,2.5701,2.5696,2.5696,2.5698,2.5728,2.5735,2.5753,2.5718,2.5718,2.5718,0,2.5795,2.5791,2.5797,2.5785,2.5784,2.5786,2.578,2.5778,2.577,2.5764,2.576,2.5748,2.5749,2.5737,2.5738,2.5731,2.5729,2.5724,2.5724,2.5722,2.5708,2.5725,2.5758,2.576,2.5722,2.5722,2.5721,0,2.5821,2.5816,2.5819,2.5816,2.5802,2.5804,2.5798,2.579,2.5787,2.5782,2.578,2.5775,2.5772,2.5769,2.5756,2.5748,2.5758,2.5744,2.5752,2.5752,2.5753,2.5753,2.5784,2.5754,2.5754,2.5754,2.5754,0,2.5843,2.5847,2.583,2.5831,2.5835,2.5821,2.5825,2.5818,2.5811,2.581,2.5796,2.5796,2.578,2.5778,2.5768,2.577,2.5769,2.5763,2.576,2.5763,2.5764,2.576,2.5758,2.5755,2.5755,2.5755,2.5755,0,2.5871,2.586,2.5862,2.5849,2.5846,2.5849,2.5839,2.5839,2.5831,2.583,2.583,2.5816,2.5813,2.58,2.5794,2.5787,2.5792,2.5787,2.5795,2.5792,2.58,2.5799,2.5829,2.5832,2.5802,2.5802,2.5802,0,2.5886,2.5888,2.5876,2.5875,2.587,2.5869,2.5866,2.5853,2.5851,2.5842,2.5844,2.584,2.5835,2.5831,2.5821,2.5816,2.581,2.5821,2.5809,2.5812,2.5808,2.5808,2.5808,2.5823,2.5823,2.5824,2.5824,0,2.5912,2.5907,2.5904,2.5899,2.5896,2.5892,2.5886,2.5886,2.5871,2.587,2.5867,2.5864,2.5858,2.5853,2.5847,2.5841,2.583,2.5828,2.5829,2.5832,2.5836,2.5832,2.58,2.5827,2.5827,2.5827,2.5826,2.5826,2.5933,2.5934,2.5926,2.5923,2.5918,2.5913,2.5913,2.5905,2.5902,2.5896,2.5889,2.5887,2.5878,2.5869,2.5864,2.5861,2.5855,2.5857,2.5857,2.5858,2.5859,2.5837,2.586,2.586,2.586,2.586,2.586,0,2.5957,2.5952,2.5949,2.5942,2.594,2.5931,2.5925,2.5923,2.5921,2.5915,2.5911,2.5908,2.5904,2.5893,2.5888,2.5888,2.5883,2.5887,2.5886,2.5885,2.5865,2.5864,2.5891,2.5891,2.5891,2.5891,2.5891,2.5891,2.597,2.5971,2.5965,2.5964,2.5958,2.5956,2.5953,2.5948,2.5943,2.594,2.5936,2.593,2.5922,2.5916,2.5912,2.5909,2.5907,2.5912,2.5908,2.5889,2.5886,2.5883,2.5882,2.5913,2.5913,2.5927,2.5927,2.5927]}]]